This is the latest recevied weather packets stored in our database for station/object N7TUG. If no packets are shown the sender has not sent any weather packets the latest 10 day(s).
| Time | Temp. | Humidity | Pressure | Rain* | Wind** | Luminosity | Snow |
|---|---|---|---|---|---|---|---|
| 1777672516 | 18.33° C | 68% | 1015 hPa | 0 mm | - | 731 W/m² | - |
| 1777667735 | 19.44° C | 66% | 1015.2 hPa | 0 mm | - | 780 W/m² | - |
| 1777667115 | 18.33° C | 67% | 1015.3 hPa | 0 mm | - | 785 W/m² | - |
| 1777666515 | 18.89° C | 66% | 1015.3 hPa | 0 mm | - | 877 W/m² | - |
| 1777665314 | 18.33° C | 67% | 1015.6 hPa | 0 mm | - | 800 W/m² | - |
| 1777661115 | 16.67° C | 71% | 1016.1 hPa | 0 mm | - | 481 W/m² | - |
| 1777654515 | 16.11° C | 74% | 1016.9 hPa | 0 mm | - | 469 W/m² | - |
| 1777651516 | 14.44° C | 78% | 1017.1 hPa | 0 mm | - | 388 W/m² | - |
| 1777649715 | 14.44° C | 78% | 1017 hPa | 0 mm | - | 293 W/m² | - |
| 1777646716 | 12.78° C | 84% | 1016.9 hPa | 0 mm | - | 154 W/m² | - |
| 1777646115 | 12.22° C | 85% | 1016.9 hPa | 0 mm | - | 119 W/m² | - |
| 1777645516 | 12.22° C | 83% | 1016.8 hPa | 0 mm | - | 95 W/m² | - |
| 1777641316 | 10.56° C | 85% | 1016.2 hPa | 0 mm | - | 32 W/m² | - |
| 1777638314 | 11.67° C | 84% | 1016 hPa | 0 mm | - | 18 W/m² | - |
| 1777637115 | 11.67° C | 85% | 1015.9 hPa | 0 mm | - | 18 W/m² | - |
| 1777635335 | 12.22° C | 84% | 1016 hPa | 0 mm | - | 18 W/m² | - |
| 1777629315 | 13.33° C | 80% | 1015.8 hPa | 0 mm | - | 18 W/m² | - |
| 1777626315 | 12.78° C | 82% | 1015.9 hPa | 0 mm | - | 18 W/m² | - |
| 1777623915 | 13.89° C | 79% | 1015.9 hPa | 0 mm | - | 18 W/m² | - |
| 1777623315 | 13.89° C | 80% | 1016 hPa | 0 mm | - | 18 W/m² | - |
| 1777622716 | 13.89° C | 79% | 1015.9 hPa | 0 mm | - | 18 W/m² | - |
| 1777620915 | 14.44° C | 79% | 1016 hPa | 0 mm | - | 18 W/m² | - |
| 1777619115 | 14.44° C | 79% | 1015.8 hPa | 0 mm | - | 18 W/m² | - |
| 1777613115 | 16.11° C | 73% | 1015.8 hPa | 0 mm | - | 18 W/m² | - |
| 1777611915 | 16.67° C | 71% | 1015.8 hPa | 0 mm | - | 18 W/m² | - |
* Rain latest hour (hover to see other rain measurements)
** Current wind speed in m/s (hover to see current wind gust speed)